Year,Month,Day,Hour,Minute,Value (Times are PST for temperature in C)
2014,03,21,00,00,2.90
2014,03,21,00,01,2.90
2014,03,21,00,02,2.90
2014,03,21,00,03,2.90
2014,03,21,00,04,2.90
2014,03,21,00,05,2.90
2014,03,21,00,06,2.80
2014,03,21,00,07,2.80
2014,03,21,00,08,2.80
2014,03,21,00,09,2.80
2014,03,21,00,10,2.70
2014,03,21,00,11,2.70
2014,03,21,00,12,2.70
2014,03,21,00,13,2.70
2014,03,21,00,14,2.70
2014,03,21,00,15,2.60
2014,03,21,00,16,2.60
2014,03,21,00,17,2.60
2014,03,21,00,18,2.60
2014,03,21,00,19,2.60
2014,03,21,00,20,2.60
2014,03,21,00,21,2.60
2014,03,21,00,22,2.50
2014,03,21,00,23,2.50
2014,03,21,00,24,2.50
2014,03,21,00,25,2.50
2014,03,21,00,26,2.50
2014,03,21,00,27,2.50
2014,03,21,00,28,2.50
2014,03,21,00,29,2.40
2014,03,21,00,30,2.40
2014,03,21,00,31,2.40
2014,03,21,00,32,2.40
2014,03,21,00,33,2.40
2014,03,21,00,34,2.40
2014,03,21,00,35,2.40
2014,03,21,00,36,2.40
2014,03,21,00,37,2.40
2014,03,21,00,38,2.40
2014,03,21,00,39,2.40
2014,03,21,00,40,2.40
2014,03,21,00,41,2.40
2014,03,21,00,42,2.40
2014,03,21,00,43,2.40
2014,03,21,00,44,2.40
2014,03,21,00,45,2.40
2014,03,21,00,46,2.40
2014,03,21,00,47,2.50
2014,03,21,00,48,2.50
2014,03,21,00,49,2.50
2014,03,21,00,50,2.50
2014,03,21,00,51,2.50
2014,03,21,00,52,2.60
2014,03,21,00,53,2.60
2014,03,21,00,54,2.60
2014,03,21,00,55,2.60
2014,03,21,00,56,2.60
2014,03,21,00,57,2.60
2014,03,21,00,58,2.60
2014,03,21,00,59,2.60
2014,03,21,01,00,2.60
2014,03,21,01,01,2.60
2014,03,21,01,02,2.60
2014,03,21,01,03,2.60
2014,03,21,01,04,2.60
2014,03,21,01,05,2.60
2014,03,21,01,06,2.60
2014,03,21,01,07,2.60
2014,03,21,01,08,2.60
2014,03,21,01,09,2.60
2014,03,21,01,10,2.60
2014,03,21,01,11,2.60
2014,03,21,01,12,2.60
2014,03,21,01,13,2.60
2014,03,21,01,14,2.60
2014,03,21,01,15,2.60
2014,03,21,01,16,2.60
2014,03,21,01,17,2.70
2014,03,21,01,18,2.70
2014,03,21,01,19,2.70
2014,03,21,01,20,2.70
2014,03,21,01,21,2.70
2014,03,21,01,22,2.70
2014,03,21,01,23,2.70
2014,03,21,01,24,2.70
2014,03,21,01,25,2.70
2014,03,21,01,26,2.70
2014,03,21,01,27,2.80
2014,03,21,01,28,2.80
2014,03,21,01,29,2.80
2014,03,21,01,30,2.80
2014,03,21,01,31,2.80
2014,03,21,01,32,2.80
2014,03,21,01,33,2.80
2014,03,21,01,34,2.80
2014,03,21,01,35,2.80
2014,03,21,01,36,2.80
2014,03,21,01,37,2.70
2014,03,21,01,38,2.70
2014,03,21,01,39,2.70
2014,03,21,01,40,2.70
2014,03,21,01,41,2.70
2014,03,21,01,42,2.70
2014,03,21,01,43,2.70
2014,03,21,01,44,2.70
2014,03,21,01,45,2.70
2014,03,21,01,46,2.70
2014,03,21,01,47,2.70
2014,03,21,01,48,2.70
2014,03,21,01,49,2.70
2014,03,21,01,50,2.70
2014,03,21,01,51,2.70
2014,03,21,01,52,2.70
2014,03,21,01,53,2.70
2014,03,21,01,54,2.70
2014,03,21,01,55,2.70
2014,03,21,01,56,2.70
2014,03,21,01,57,2.70
2014,03,21,01,58,2.70
2014,03,21,01,59,2.70
2014,03,21,02,00,2.60
2014,03,21,02,01,2.60
2014,03,21,02,02,2.60
2014,03,21,02,03,2.60
2014,03,21,02,04,2.60
2014,03,21,02,05,2.60
2014,03,21,02,06,2.60
2014,03,21,02,07,2.60
2014,03,21,02,08,2.60
2014,03,21,02,09,2.60
2014,03,21,02,10,2.60
2014,03,21,02,11,2.60
2014,03,21,02,12,2.60
2014,03,21,02,13,2.60
2014,03,21,02,14,2.60
2014,03,21,02,15,2.60
2014,03,21,02,16,2.60
2014,03,21,02,17,2.70
2014,03,21,02,18,2.60
2014,03,21,02,19,2.60
2014,03,21,02,20,2.60
2014,03,21,02,21,2.70
2014,03,21,02,22,2.70
2014,03,21,02,23,2.70
2014,03,21,02,24,2.70
2014,03,21,02,25,2.70
2014,03,21,02,26,2.70
2014,03,21,02,27,2.70
2014,03,21,02,28,2.70
2014,03,21,02,29,2.70
2014,03,21,02,30,2.70
2014,03,21,02,31,2.70
2014,03,21,02,32,2.70
2014,03,21,02,33,2.70
2014,03,21,02,34,2.70
2014,03,21,02,35,2.70
2014,03,21,02,36,2.70
2014,03,21,02,37,2.70
2014,03,21,02,38,2.70
2014,03,21,02,39,2.70
2014,03,21,02,40,2.70
2014,03,21,02,41,2.70
2014,03,21,02,42,2.70
2014,03,21,02,43,2.70
2014,03,21,02,44,2.70
2014,03,21,02,45,2.70
2014,03,21,02,46,2.70
2014,03,21,02,47,2.70
2014,03,21,02,48,2.70
2014,03,21,02,49,2.70
2014,03,21,02,50,2.70
2014,03,21,02,51,2.70
2014,03,21,02,52,2.70
2014,03,21,02,53,2.70
2014,03,21,02,54,2.70
2014,03,21,02,55,2.70
2014,03,21,02,56,2.70
2014,03,21,02,57,2.70
2014,03,21,02,58,2.70
2014,03,21,02,59,2.70
2014,03,21,03,00,2.70
2014,03,21,03,01,2.70
2014,03,21,03,02,2.60
2014,03,21,03,03,2.60
2014,03,21,03,04,2.60
2014,03,21,03,05,2.60
2014,03,21,03,06,2.60
2014,03,21,03,07,2.60
2014,03,21,03,08,2.60
2014,03,21,03,09,2.60
2014,03,21,03,10,2.60
2014,03,21,03,11,2.60
2014,03,21,03,12,2.60
2014,03,21,03,13,2.60
2014,03,21,03,14,2.60
2014,03,21,03,15,2.60
2014,03,21,03,16,2.60
2014,03,21,03,17,2.60
2014,03,21,03,18,2.60
2014,03,21,03,19,2.60
2014,03,21,03,20,2.60
2014,03,21,03,21,2.60
2014,03,21,03,22,2.60
2014,03,21,03,23,2.60
2014,03,21,03,24,2.60
2014,03,21,03,25,2.60
2014,03,21,03,26,2.60
2014,03,21,03,27,2.60
2014,03,21,03,28,2.60
2014,03,21,03,29,2.60
2014,03,21,03,30,2.60
2014,03,21,03,31,2.60
2014,03,21,03,32,2.60
2014,03,21,03,33,2.60
2014,03,21,03,34,2.60
2014,03,21,03,35,2.60
2014,03,21,03,36,2.60
2014,03,21,03,37,2.60
2014,03,21,03,38,2.60
2014,03,21,03,39,2.60
2014,03,21,03,40,2.60
2014,03,21,03,41,2.60
2014,03,21,03,42,2.60
2014,03,21,03,43,2.60
2014,03,21,03,44,2.60
2014,03,21,03,45,2.60
2014,03,21,03,46,2.60
2014,03,21,03,47,2.60
2014,03,21,03,48,2.50
2014,03,21,03,49,2.50
2014,03,21,03,50,2.50
2014,03,21,03,51,2.50
2014,03,21,03,52,2.50
2014,03,21,03,53,2.50
2014,03,21,03,54,2.40
2014,03,21,03,55,2.40
2014,03,21,03,56,2.40
2014,03,21,03,57,2.40
2014,03,21,03,58,2.40
2014,03,21,03,59,2.40
2014,03,21,04,00,2.40
2014,03,21,04,01,2.40
2014,03,21,04,02,2.40
2014,03,21,04,03,2.40
2014,03,21,04,04,2.30
2014,03,21,04,05,2.30
2014,03,21,04,06,2.30
2014,03,21,04,07,2.30
2014,03,21,04,08,2.30
2014,03,21,04,09,2.30
2014,03,21,04,10,2.30
2014,03,21,04,11,2.30
2014,03,21,04,12,2.30
2014,03,21,04,13,2.30
2014,03,21,04,14,2.30
2014,03,21,04,15,2.30
2014,03,21,04,16,2.30
2014,03,21,04,17,2.30
2014,03,21,04,18,2.30
2014,03,21,04,19,2.30
2014,03,21,04,20,2.30
2014,03,21,04,21,2.20
2014,03,21,04,22,2.20
2014,03,21,04,23,2.20
2014,03,21,04,24,2.20
2014,03,21,04,25,2.20
2014,03,21,04,26,2.20
2014,03,21,04,27,2.20
2014,03,21,04,28,2.20
2014,03,21,04,29,2.20
2014,03,21,04,30,2.20
2014,03,21,04,31,2.10
2014,03,21,04,32,2.10
2014,03,21,04,33,2.10
2014,03,21,04,34,2.10
2014,03,21,04,35,2.10
2014,03,21,04,36,2.10
2014,03,21,04,37,2.10
2014,03,21,04,38,2.10
2014,03,21,04,39,2.10
2014,03,21,04,40,2.10
2014,03,21,04,41,2.10
2014,03,21,04,42,2.10
2014,03,21,04,43,2.10
2014,03,21,04,44,2.10
2014,03,21,04,45,2.10
2014,03,21,04,46,2.10
2014,03,21,04,47,2.10
2014,03,21,04,48,2.10
2014,03,21,04,49,2.10
2014,03,21,04,50,2.10
2014,03,21,04,51,2.10
2014,03,21,04,52,2.00
2014,03,21,04,53,2.00
2014,03,21,04,54,2.00
2014,03,21,04,55,2.00
2014,03,21,04,56,2.00
2014,03,21,04,57,1.90
2014,03,21,04,58,1.90
2014,03,21,04,59,1.90
2014,03,21,05,00,1.90
2014,03,21,05,01,1.90
2014,03,21,05,02,1.90
2014,03,21,05,03,1.90
2014,03,21,05,04,1.90
2014,03,21,05,05,1.90
2014,03,21,05,06,1.90
2014,03,21,05,07,1.90
2014,03,21,05,08,1.90
2014,03,21,05,09,1.80
2014,03,21,05,10,1.80
2014,03,21,05,11,1.80
2014,03,21,05,12,1.80
2014,03,21,05,13,1.80
2014,03,21,05,14,1.80
2014,03,21,05,15,1.80
2014,03,21,05,16,1.80
2014,03,21,05,17,1.70
2014,03,21,05,18,1.70
2014,03,21,05,19,1.70
2014,03,21,05,20,1.70
2014,03,21,05,21,1.70
2014,03,21,05,22,1.70
2014,03,21,05,23,1.70
2014,03,21,05,24,1.70
2014,03,21,05,25,1.70
2014,03,21,05,26,1.60
2014,03,21,05,27,1.60
2014,03,21,05,28,1.60
2014,03,21,05,29,1.60
2014,03,21,05,30,1.70
2014,03,21,05,31,1.60
2014,03,21,05,32,1.60
2014,03,21,05,33,1.60
2014,03,21,05,34,1.60
2014,03,21,05,35,1.60
2014,03,21,05,36,1.60
2014,03,21,05,37,1.60
2014,03,21,05,38,1.50
2014,03,21,05,39,1.50
2014,03,21,05,40,1.50
2014,03,21,05,41,1.50
2014,03,21,05,42,1.40
2014,03,21,05,43,1.40
2014,03,21,05,44,1.40
2014,03,21,05,45,1.40
2014,03,21,05,46,1.30
2014,03,21,05,47,1.30
2014,03,21,05,48,1.30
2014,03,21,05,49,1.30
2014,03,21,05,50,1.30
2014,03,21,05,51,1.30
2014,03,21,05,52,1.30
2014,03,21,05,53,1.30
2014,03,21,05,54,1.30
2014,03,21,05,55,1.30
2014,03,21,05,56,1.30
2014,03,21,05,57,1.30
2014,03,21,05,58,1.30
2014,03,21,05,59,1.30
2014,03,21,06,00,1.30
2014,03,21,06,01,1.30
2014,03,21,06,02,1.30
2014,03,21,06,03,1.30
2014,03,21,06,04,1.30
2014,03,21,06,05,1.30
2014,03,21,06,06,1.30
2014,03,21,06,07,1.30
2014,03,21,06,08,1.30
2014,03,21,06,09,1.30
2014,03,21,06,10,1.40
2014,03,21,06,11,1.40
2014,03,21,06,12,1.40
2014,03,21,06,13,1.40
2014,03,21,06,14,1.40
2014,03,21,06,15,1.40
2014,03,21,06,16,1.30
2014,03,21,06,17,1.30
2014,03,21,06,18,1.30
2014,03,21,06,19,1.30
2014,03,21,06,20,1.30
2014,03,21,06,21,1.30
2014,03,21,06,22,1.30
2014,03,21,06,23,1.30
2014,03,21,06,24,1.30
2014,03,21,06,25,1.30
2014,03,21,06,26,1.30
2014,03,21,06,27,1.30
2014,03,21,06,28,1.30
2014,03,21,06,29,1.30
2014,03,21,06,30,1.30
2014,03,21,06,31,1.30
2014,03,21,06,32,1.30
2014,03,21,06,33,1.30
2014,03,21,06,34,1.30
2014,03,21,06,35,1.30
2014,03,21,06,36,1.30
2014,03,21,06,37,1.30
2014,03,21,06,38,1.30
2014,03,21,06,39,1.30
2014,03,21,06,40,1.30
2014,03,21,06,41,1.30
2014,03,21,06,42,1.30
2014,03,21,06,43,1.30
2014,03,21,06,44,1.30
2014,03,21,06,45,1.30
2014,03,21,06,46,1.30
2014,03,21,06,47,1.30
2014,03,21,06,48,1.30
2014,03,21,06,49,1.30
2014,03,21,06,50,1.30
2014,03,21,06,51,1.30
2014,03,21,06,52,1.30
2014,03,21,06,53,1.30
2014,03,21,06,54,1.30
2014,03,21,06,55,1.30
2014,03,21,06,56,1.30
2014,03,21,06,57,1.30
2014,03,21,06,58,1.30
2014,03,21,06,59,1.30
2014,03,21,07,00,1.30
2014,03,21,07,01,1.30
2014,03,21,07,02,1.30
2014,03,21,07,03,1.30
2014,03,21,07,04,1.30
2014,03,21,07,05,1.30
2014,03,21,07,06,1.30
2014,03,21,07,07,1.30
2014,03,21,07,08,1.30
2014,03,21,07,09,1.30
2014,03,21,07,10,1.30
2014,03,21,07,11,1.30
2014,03,21,07,12,1.30
2014,03,21,07,13,1.30
2014,03,21,07,14,1.30
2014,03,21,07,15,1.30
2014,03,21,07,16,1.30
2014,03,21,07,17,1.30
2014,03,21,07,18,1.30
2014,03,21,07,19,1.30
2014,03,21,07,20,1.30
2014,03,21,07,21,1.30
2014,03,21,07,22,1.30
2014,03,21,07,23,1.30
2014,03,21,07,24,1.30
2014,03,21,07,25,1.30
2014,03,21,07,26,1.40
2014,03,21,07,27,1.40
2014,03,21,07,28,1.40
2014,03,21,07,29,1.40
2014,03,21,07,30,1.40
2014,03,21,07,31,1.40
2014,03,21,07,32,1.40
2014,03,21,07,33,1.40
2014,03,21,07,34,1.40
2014,03,21,07,35,1.40
2014,03,21,07,36,1.40
2014,03,21,07,37,1.50
2014,03,21,07,38,1.50
2014,03,21,07,39,1.50
2014,03,21,07,40,1.50
2014,03,21,07,41,1.50
2014,03,21,07,42,1.50
2014,03,21,07,43,1.50
2014,03,21,07,44,1.60
2014,03,21,07,45,1.60
2014,03,21,07,46,1.60
2014,03,21,07,47,1.60
2014,03,21,07,48,1.60
2014,03,21,07,49,1.60
2014,03,21,07,50,1.60
2014,03,21,07,51,1.60
2014,03,21,07,52,1.60
2014,03,21,07,53,1.60
2014,03,21,07,54,1.70
2014,03,21,07,55,1.60
2014,03,21,07,56,1.60
2014,03,21,07,57,1.70
2014,03,21,07,58,1.70
2014,03,21,07,59,1.70
2014,03,21,08,00,1.70
2014,03,21,08,01,1.70
2014,03,21,08,02,1.70
2014,03,21,08,03,1.70
2014,03,21,08,04,1.70
2014,03,21,08,05,1.70
2014,03,21,08,06,1.70
2014,03,21,08,07,1.70
2014,03,21,08,08,1.70
2014,03,21,08,09,1.70
2014,03,21,08,10,1.70
2014,03,21,08,11,1.70
2014,03,21,08,12,1.70
2014,03,21,08,13,1.70
2014,03,21,08,14,1.70
2014,03,21,08,15,1.70
2014,03,21,08,16,1.70
2014,03,21,08,17,1.70
2014,03,21,08,18,1.80
2014,03,21,08,19,1.80
2014,03,21,08,20,1.80
2014,03,21,08,21,1.80
2014,03,21,08,22,1.80
2014,03,21,08,23,1.80
2014,03,21,08,24,1.80
2014,03,21,08,25,1.80
2014,03,21,08,26,1.80
2014,03,21,08,27,1.80
2014,03,21,08,28,1.80
2014,03,21,08,29,1.80
2014,03,21,08,30,1.80
2014,03,21,08,31,1.80
2014,03,21,08,32,1.80
2014,03,21,08,33,1.80
2014,03,21,08,34,1.80
2014,03,21,08,35,1.90
2014,03,21,08,36,1.90
2014,03,21,08,37,1.90
2014,03,21,08,38,1.90
2014,03,21,08,39,1.90
2014,03,21,08,40,1.90
2014,03,21,08,41,1.90
2014,03,21,08,42,2.00
2014,03,21,08,43,2.00
2014,03,21,08,44,2.00
2014,03,21,08,45,2.00
2014,03,21,08,46,2.00
2014,03,21,08,47,2.00
2014,03,21,08,48,2.00
2014,03,21,08,49,2.00
2014,03,21,08,50,2.00
2014,03,21,08,51,2.00
2014,03,21,08,52,2.00
2014,03,21,08,53,2.10
2014,03,21,08,54,2.10
2014,03,21,08,55,2.10
2014,03,21,08,56,2.10
2014,03,21,08,57,2.10
2014,03,21,08,58,2.10
2014,03,21,08,59,2.10
2014,03,21,09,00,2.10
2014,03,21,09,01,2.10
2014,03,21,09,02,2.10
2014,03,21,09,03,2.10
2014,03,21,09,04,2.10
2014,03,21,09,05,2.20
2014,03,21,09,06,2.20
2014,03,21,09,07,2.20
2014,03,21,09,08,2.20
2014,03,21,09,09,2.20
2014,03,21,09,10,2.20
2014,03,21,09,11,2.20
2014,03,21,09,12,2.20
2014,03,21,09,13,2.20
2014,03,21,09,14,2.20
2014,03,21,09,15,2.20
2014,03,21,09,16,2.20
2014,03,21,09,17,2.20
2014,03,21,09,18,2.20
2014,03,21,09,19,2.30
2014,03,21,09,20,2.30
2014,03,21,09,21,2.30
2014,03,21,09,22,2.30
2014,03,21,09,23,2.30
2014,03,21,09,24,2.30
2014,03,21,09,25,2.30
2014,03,21,09,26,2.30
2014,03,21,09,27,2.30
2014,03,21,09,28,2.30
2014,03,21,09,29,2.30
2014,03,21,09,30,2.30
2014,03,21,09,31,2.40
2014,03,21,09,32,2.40
2014,03,21,09,33,2.40
2014,03,21,09,34,2.40
2014,03,21,09,35,2.40
2014,03,21,09,36,2.40
2014,03,21,09,37,2.40
2014,03,21,09,38,2.50
2014,03,21,09,39,2.50
2014,03,21,09,40,2.50
2014,03,21,09,41,2.50
2014,03,21,09,42,2.50
2014,03,21,09,43,2.50
2014,03,21,09,44,2.60
2014,03,21,09,45,2.60
2014,03,21,09,46,2.60
2014,03,21,09,47,2.70
2014,03,21,09,48,2.70
2014,03,21,09,49,2.70
2014,03,21,09,50,2.70
2014,03,21,09,51,2.70
2014,03,21,09,52,2.80
2014,03,21,09,53,2.80
2014,03,21,09,54,2.80
2014,03,21,09,55,2.80
2014,03,21,09,56,2.80
2014,03,21,09,57,2.80
2014,03,21,09,58,2.90
2014,03,21,09,59,2.90
2014,03,21,10,00,2.90
2014,03,21,10,01,2.90
2014,03,21,10,02,2.90
2014,03,21,10,03,3.00
2014,03,21,10,04,3.00
2014,03,21,10,05,3.00
2014,03,21,10,06,3.00
2014,03,21,10,07,3.00
2014,03,21,10,08,3.10
2014,03,21,10,09,3.10
2014,03,21,10,10,3.10
2014,03,21,10,11,3.10
2014,03,21,10,12,3.20
2014,03,21,10,13,3.20
2014,03,21,10,14,3.20
2014,03,21,10,15,3.20
2014,03,21,10,16,3.20
2014,03,21,10,17,3.20
2014,03,21,10,18,3.20
2014,03,21,10,19,3.20
2014,03,21,10,20,3.30
2014,03,21,10,21,3.30
2014,03,21,10,22,3.30
2014,03,21,10,23,3.30
2014,03,21,10,24,3.40
2014,03,21,10,25,3.40
2014,03,21,10,26,3.50
2014,03,21,10,27,3.50
2014,03,21,10,28,3.60
2014,03,21,10,29,3.60
2014,03,21,10,30,3.60
2014,03,21,10,31,3.70
2014,03,21,10,32,3.70
2014,03,21,10,33,3.70
2014,03,21,10,34,3.70
2014,03,21,10,35,3.70
2014,03,21,10,36,3.60
2014,03,21,10,37,3.60
2014,03,21,10,38,3.60
2014,03,21,10,39,3.60
2014,03,21,10,40,3.60
2014,03,21,10,41,3.60
2014,03,21,10,42,3.70
2014,03,21,10,43,3.70
2014,03,21,10,44,3.70
2014,03,21,10,45,3.70
2014,03,21,10,46,3.70
2014,03,21,10,47,3.70
2014,03,21,10,48,3.70
2014,03,21,10,49,3.80
2014,03,21,10,50,3.80
2014,03,21,10,51,3.80
2014,03,21,10,52,3.80
2014,03,21,10,53,3.80
2014,03,21,10,54,3.90
2014,03,21,10,55,3.90
2014,03,21,10,56,4.00
2014,03,21,10,57,4.00
2014,03,21,10,58,4.00
2014,03,21,10,59,4.00
2014,03,21,11,00,4.10
2014,03,21,11,01,4.10
2014,03,21,11,02,4.20
2014,03,21,11,03,4.30
2014,03,21,11,04,4.40
2014,03,21,11,05,4.50
2014,03,21,11,06,4.50
2014,03,21,11,07,4.60
2014,03,21,11,08,4.60
2014,03,21,11,09,4.70
2014,03,21,11,10,4.70
2014,03,21,11,11,4.80
2014,03,21,11,12,4.80
2014,03,21,11,13,4.80
2014,03,21,11,14,4.90
2014,03,21,11,15,5.00
2014,03,21,11,16,5.00
2014,03,21,11,17,5.00
2014,03,21,11,18,5.10
2014,03,21,11,19,5.00
2014,03,21,11,20,5.00
2014,03,21,11,21,5.00
2014,03,21,11,22,5.10
2014,03,21,11,23,5.10
2014,03,21,11,24,5.10
2014,03,21,11,25,5.10
2014,03,21,11,26,5.20
2014,03,21,11,27,5.20
2014,03,21,11,28,5.30
2014,03,21,11,29,5.30
2014,03,21,11,30,5.30
2014,03,21,11,31,5.30
2014,03,21,11,32,5.20
2014,03,21,11,33,5.20
2014,03,21,11,34,5.20
2014,03,21,11,35,5.20
2014,03,21,11,36,5.20
2014,03,21,11,37,5.20
2014,03,21,11,38,5.20
2014,03,21,11,39,5.20
2014,03,21,11,40,5.20
2014,03,21,11,41,5.20
2014,03,21,11,42,5.20
2014,03,21,11,43,5.30
2014,03,21,11,44,5.30
2014,03,21,11,45,5.40
2014,03,21,11,46,5.50
2014,03,21,11,47,5.60
2014,03,21,11,48,5.70
2014,03,21,11,49,5.80
2014,03,21,11,50,5.80
2014,03,21,11,51,5.90
2014,03,21,11,52,5.90
2014,03,21,11,53,5.90
2014,03,21,11,54,6.00
2014,03,21,11,55,6.00
2014,03,21,11,56,6.10
2014,03,21,11,57,6.10
2014,03,21,11,58,6.20
2014,03,21,11,59,6.30
2014,03,21,12,00,6.40
2014,03,21,12,01,6.50
2014,03,21,12,02,6.60
2014,03,21,12,03,6.70
2014,03,21,12,04,6.80
2014,03,21,12,05,6.80
2014,03,21,12,06,6.90
2014,03,21,12,07,6.90
2014,03,21,12,08,6.90
2014,03,21,12,09,7.00
2014,03,21,12,10,7.10
2014,03,21,12,11,7.20
2014,03,21,12,12,7.30
2014,03,21,12,13,7.30
2014,03,21,12,14,7.40
2014,03,21,12,15,7.50
2014,03,21,12,16,7.50
2014,03,21,12,17,7.60
2014,03,21,12,18,7.60
2014,03,21,12,19,7.60
2014,03,21,12,20,7.60
2014,03,21,12,21,7.60
2014,03,21,12,22,7.60
2014,03,21,12,23,7.60
2014,03,21,12,24,7.50
2014,03,21,12,25,7.50
2014,03,21,12,26,7.50
2014,03,21,12,27,7.60
2014,03,21,12,28,7.60
2014,03,21,12,29,7.60
2014,03,21,12,30,7.60
2014,03,21,12,31,7.50
2014,03,21,12,32,7.50
2014,03,21,12,33,7.40
2014,03,21,12,34,7.40
2014,03,21,12,35,7.40
2014,03,21,12,36,7.50
2014,03,21,12,37,7.50
2014,03,21,12,38,7.50
2014,03,21,12,39,7.60
2014,03,21,12,40,7.60
2014,03,21,12,41,7.70
2014,03,21,12,42,7.70
2014,03,21,12,43,7.70
2014,03,21,12,44,7.70
2014,03,21,12,45,7.70
2014,03,21,12,46,7.70
2014,03,21,12,47,7.80
2014,03,21,12,48,7.80
2014,03,21,12,49,7.90
2014,03,21,12,50,7.90
2014,03,21,12,51,8.00
2014,03,21,12,52,8.00
2014,03,21,12,53,8.00
2014,03,21,12,54,8.00
2014,03,21,12,55,8.10
2014,03,21,12,56,8.10
2014,03,21,12,57,8.10
2014,03,21,12,58,8.00
2014,03,21,12,59,8.00
2014,03,21,13,00,8.00
2014,03,21,13,01,7.90
2014,03,21,13,02,7.90
2014,03,21,13,03,7.90
2014,03,21,13,04,7.90
2014,03,21,13,05,7.90
2014,03,21,13,06,8.00
2014,03,21,13,07,8.10
2014,03,21,13,08,8.10
2014,03,21,13,09,8.20
2014,03,21,13,10,8.30
2014,03,21,13,11,8.40
2014,03,21,13,12,8.40
2014,03,21,13,13,8.40
2014,03,21,13,14,8.40
2014,03,21,13,15,8.40
2014,03,21,13,16,8.40
2014,03,21,13,17,8.40
2014,03,21,13,18,8.40
2014,03,21,13,19,8.40
2014,03,21,13,20,8.40
2014,03,21,13,21,8.40
2014,03,21,13,22,8.40
2014,03,21,13,23,8.40
2014,03,21,13,24,8.40
2014,03,21,13,25,8.50
2014,03,21,13,26,8.50
2014,03,21,13,27,8.60
2014,03,21,13,28,8.70
2014,03,21,13,29,8.80
2014,03,21,13,30,8.80
2014,03,21,13,31,8.90
2014,03,21,13,32,8.90
2014,03,21,13,33,8.90
2014,03,21,13,34,8.80
2014,03,21,13,35,8.80
2014,03,21,13,36,8.80
2014,03,21,13,37,8.80
2014,03,21,13,38,8.90
2014,03,21,13,39,8.80
2014,03,21,13,40,8.80
2014,03,21,13,41,8.80
2014,03,21,13,42,8.80
2014,03,21,13,43,8.80
2014,03,21,13,44,8.80
2014,03,21,13,45,8.80
2014,03,21,13,46,8.80
2014,03,21,13,47,8.80
2014,03,21,13,48,8.90
2014,03,21,13,49,8.90
2014,03,21,13,50,8.90
2014,03,21,13,51,8.90
2014,03,21,13,52,9.00
2014,03,21,13,53,9.10
2014,03,21,13,54,9.20
2014,03,21,13,55,9.20
2014,03,21,13,56,9.20
2014,03,21,13,57,9.20
2014,03,21,13,58,9.20
2014,03,21,13,59,9.30
2014,03,21,14,00,9.40
2014,03,21,14,01,9.40
2014,03,21,14,02,9.50
2014,03,21,14,03,9.50
2014,03,21,14,04,9.50
2014,03,21,14,05,9.50
2014,03,21,14,06,9.50
2014,03,21,14,07,9.50
2014,03,21,14,08,9.50
2014,03,21,14,09,9.50
2014,03,21,14,10,9.40
2014,03,21,14,11,9.40
2014,03,21,14,12,9.40
2014,03,21,14,13,9.40
2014,03,21,14,14,9.40
2014,03,21,14,15,9.30
2014,03,21,14,16,9.30
2014,03,21,14,17,9.40
2014,03,21,14,18,9.50
2014,03,21,14,19,9.60
2014,03,21,14,20,9.60
2014,03,21,14,21,9.60
2014,03,21,14,22,9.60
2014,03,21,14,23,9.70
2014,03,21,14,24,9.70
2014,03,21,14,25,9.70
2014,03,21,14,26,9.80
2014,03,21,14,27,9.80
2014,03,21,14,28,9.80
2014,03,21,14,29,9.90
2014,03,21,14,30,9.90
2014,03,21,14,31,9.90
2014,03,21,14,32,9.90
2014,03,21,14,33,9.90
2014,03,21,14,34,10.00
2014,03,21,14,35,10.10
2014,03,21,14,36,10.10
2014,03,21,14,37,10.20
2014,03,21,14,38,10.30
2014,03,21,14,39,10.30
2014,03,21,14,40,10.20
2014,03,21,14,41,10.20
2014,03,21,14,42,10.20
2014,03,21,14,43,10.20
2014,03,21,14,44,10.20
2014,03,21,14,45,10.30
2014,03,21,14,46,10.30
2014,03,21,14,47,10.40
2014,03,21,14,48,10.40
2014,03,21,14,49,10.40
2014,03,21,14,50,10.30
2014,03,21,14,51,10.30
2014,03,21,14,52,10.30
2014,03,21,14,53,10.30
2014,03,21,14,54,10.30
2014,03,21,14,55,10.30
2014,03,21,14,56,10.40
2014,03,21,14,57,10.50
2014,03,21,14,58,10.60
2014,03,21,14,59,10.70
2014,03,21,15,00,10.70
2014,03,21,15,01,10.70
2014,03,21,15,02,10.70
2014,03,21,15,03,10.70
2014,03,21,15,04,10.60
2014,03,21,15,05,10.50
2014,03,21,15,06,10.50
2014,03,21,15,07,10.40
2014,03,21,15,08,10.40
2014,03,21,15,09,10.30
2014,03,21,15,10,10.30
2014,03,21,15,11,10.30
2014,03,21,15,12,10.30
2014,03,21,15,13,10.30
2014,03,21,15,14,10.40
2014,03,21,15,15,10.50
2014,03,21,15,16,10.50
2014,03,21,15,17,10.60
2014,03,21,15,18,10.70
2014,03,21,15,19,10.80
2014,03,21,15,20,10.80
2014,03,21,15,21,10.90
2014,03,21,15,22,11.00
2014,03,21,15,23,11.00
2014,03,21,15,24,11.10
2014,03,21,15,25,11.20
2014,03,21,15,26,11.20
2014,03,21,15,27,11.30
2014,03,21,15,28,11.30
2014,03,21,15,29,11.30
2014,03,21,15,30,11.30
2014,03,21,15,31,11.30
2014,03,21,15,32,11.20
2014,03,21,15,33,11.20
2014,03,21,15,34,11.10
2014,03,21,15,35,11.10
2014,03,21,15,36,11.10
2014,03,21,15,37,11.10
2014,03,21,15,38,11.10
2014,03,21,15,39,11.10
2014,03,21,15,40,11.10
2014,03,21,15,41,11.20
2014,03,21,15,42,11.20
2014,03,21,15,43,11.30
2014,03,21,15,44,11.30
2014,03,21,15,45,11.30
2014,03,21,15,46,11.30
2014,03,21,15,47,11.30
2014,03,21,15,48,11.20
2014,03,21,15,49,11.10
2014,03,21,15,50,11.00
2014,03,21,15,51,11.00
2014,03,21,15,52,11.00
2014,03,21,15,53,11.00
2014,03,21,15,54,11.00
2014,03,21,15,55,10.90
2014,03,21,15,56,10.80
2014,03,21,15,57,10.70
2014,03,21,15,58,10.60
2014,03,21,15,59,10.50
2014,03,21,16,00,10.50
2014,03,21,16,01,10.40
2014,03,21,16,02,10.40
2014,03,21,16,03,10.40
2014,03,21,16,04,10.30
2014,03,21,16,05,10.30
2014,03,21,16,06,10.30
2014,03,21,16,07,10.30
2014,03,21,16,08,10.40
2014,03,21,16,09,10.40
2014,03,21,16,10,10.40
2014,03,21,16,11,10.30
2014,03,21,16,12,10.30
2014,03,21,16,13,10.30
2014,03,21,16,14,10.30
2014,03,21,16,15,10.30
2014,03,21,16,16,10.30
2014,03,21,16,17,10.30
2014,03,21,16,18,10.20
2014,03,21,16,19,10.30
2014,03,21,16,20,10.30
2014,03,21,16,21,10.30
2014,03,21,16,22,10.30
2014,03,21,16,23,10.20
2014,03,21,16,24,10.20
2014,03,21,16,25,10.20
2014,03,21,16,26,10.20
2014,03,21,16,27,10.20
2014,03,21,16,28,10.20
2014,03,21,16,29,10.20
2014,03,21,16,30,10.20
2014,03,21,16,31,10.10
2014,03,21,16,32,10.10
2014,03,21,16,33,10.10
2014,03,21,16,34,10.10
2014,03,21,16,35,10.20
2014,03,21,16,36,10.20
2014,03,21,16,37,10.20
2014,03,21,16,38,10.30
2014,03,21,16,39,10.30
2014,03,21,16,40,10.20
2014,03,21,16,41,10.20
2014,03,21,16,42,10.10
2014,03,21,16,43,10.10
2014,03,21,16,44,10.00
2014,03,21,16,45,10.00
2014,03,21,16,46,10.00
2014,03,21,16,47,10.00
2014,03,21,16,48,10.00
2014,03,21,16,49,10.10
2014,03,21,16,50,10.10
2014,03,21,16,51,10.10
2014,03,21,16,52,10.10
2014,03,21,16,53,10.10
2014,03,21,16,54,10.10
2014,03,21,16,55,10.10
2014,03,21,16,56,10.10
2014,03,21,16,57,10.10
2014,03,21,16,58,10.00
2014,03,21,16,59,10.00
2014,03,21,17,00,9.90
2014,03,21,17,01,9.90
2014,03,21,17,02,9.80
2014,03,21,17,03,9.80
2014,03,21,17,04,9.80
2014,03,21,17,05,9.80
2014,03,21,17,06,9.80
2014,03,21,17,07,9.80
2014,03,21,17,08,9.80
2014,03,21,17,09,9.80
2014,03,21,17,10,9.80
2014,03,21,17,11,9.80
2014,03,21,17,12,9.80
2014,03,21,17,13,9.80
2014,03,21,17,14,9.80
2014,03,21,17,15,9.80
2014,03,21,17,16,9.80
2014,03,21,17,17,9.80
2014,03,21,17,18,9.70
2014,03,21,17,19,9.70
2014,03,21,17,20,9.70
2014,03,21,17,21,9.70
2014,03,21,17,22,9.70
2014,03,21,17,23,9.70
2014,03,21,17,24,9.70
2014,03,21,17,25,9.60
2014,03,21,17,26,9.60
2014,03,21,17,27,9.60
2014,03,21,17,28,9.60
2014,03,21,17,29,9.60
2014,03,21,17,30,9.60
2014,03,21,17,31,9.60
2014,03,21,17,32,9.60
2014,03,21,17,33,9.60
2014,03,21,17,34,9.70
2014,03,21,17,35,9.70
2014,03,21,17,36,9.70
2014,03,21,17,37,9.60
2014,03,21,17,38,9.60
2014,03,21,17,39,9.60
2014,03,21,17,40,9.60
2014,03,21,17,41,9.60
2014,03,21,17,42,9.60
2014,03,21,17,43,9.60
2014,03,21,17,44,9.60
2014,03,21,17,45,9.60
2014,03,21,17,46,9.60
2014,03,21,17,47,9.50
2014,03,21,17,48,9.50
2014,03,21,17,49,9.40
2014,03,21,17,50,9.40
2014,03,21,17,51,9.40
2014,03,21,17,52,9.40
2014,03,21,17,53,9.40
2014,03,21,17,54,9.30
2014,03,21,17,55,9.30
2014,03,21,17,56,9.30
2014,03,21,17,57,9.30
2014,03,21,17,58,9.30
2014,03,21,17,59,9.20
2014,03,21,18,00,9.20